Wind_Speed
6 9 8 0 7 12 15 12 13 13 18 19 22 20 14 13 12 16 27 23 13 6 8 7 9 10 12 12 12 11 11 11 11 11 10 10 9 9 8 8 8 7 6 5 4 3 2 1 1
5 4 4 5 6 9 9 14 6 13 16 18 18 18 15 16 17 28 21 12 18 8 6 6 6 6 7 9 10 10 11 11 11 11 11 11 11 11 11 10 10 9 8 7 6 5 4 3 2
4 2 3 5 8 9 11 14 9 19 15 11 12 15 20 18 21 20 14 13 6 9 7 5 4 5 4 5 6 7 8 9 10 11 11 12 12 13 13 13 12 12 12 11 10 9 8 7 6
5 3 4 10 11 15 9 8 11 18 15 11 8 16 22 20 17 15 15 10 10 12 10 8 8 7 4 4 5 5 6 7 8 9 11 12 12 13 14 15 15 15 15 14 13 13 12 10 9
6 4 6 10 16 18 12 7 21 17 9 15 11 25 20 23 20 16 11 13 10 11 15 13 8 8 8 7 5 4 4 5 6 9 10 12 13 14 15 16 16 17 17 17 17 16 16 14 14
4 5 8 11 13 16 18 18 20 15 16 18 14 12 16 18 15 13 7 10 12 10 9 9 8 8 7 6 6 6 6 7 9 10 11 13 14 15 16 17 17 18 18 19 19 19 18 17 17
5 7 14 13 12 24 17 15 12 16 17 15 10 6 15 13 9 12 8 18 9 11 16 13 14 11 9 8 7 8 7 6 5 7 11 14 18 19 20 20 20 20 21 21 21 21 21 21 20
3 9 13 17 19 15 18 21 23 12 10 15 14 8 14 11 7 7 13 19 16 5 11 13 6 8 7 10 13 12 10 7 8 13 17 17 21 22 24 24 23 24 24 24 24 24 23 23 22
9 15 15 18 17 17 11 14 23 13 8 14 8 12 10 8 5 3 5 6 6 7 11 9 11 12 11 12 13 11 13 13 18 23 23 24 24 21 23 25 25 25 25 26 28 28 27 26 26
10 13 11 10 12 11 8 1 5 13 8 7 11 10 8 5 4 1 4 8 9 12 15 15 17 16 16 14 16 20 22 22 25 26 26 26 26 24 22 23 26 29 28 26 28 29 30 31 29
6 10 4 5 5 6 4 3 2 5 6 7 4 6 11 11 9 5 1 3 6 7 10 11 11 13 15 17 20 23 27 29 28 25 23 24 22 25 25 23 25 28 31 32 32 29 32 32 31
7 5 2 1 7 5 7 5 7 4 4 6 5 5 4 5 12 10 13 12 13 14 15 16 18 21 23 24 25 25 26 26 26 25 24 24 23 24 25 28 26 29 30 30 31 31 32 33 33
6 4 4 5 6 9 11 14 14 10 7 4 1 5 6 5 15 9 8 22 22 24 24 24 23 23 25 26 27 28 29 29 30 30 29 29 29 28 29 27 27 29 29 31 31 30 29 29 31
5 3 4 6 5 8 8 12 12 10 10 6 6 8 8 10 16 13 11 13 9 17 26 31 33 31 30 31 30 30 31 32 34 35 34 34 34 35 34 34 33 31 32 31 29 31 34 32 31
8 8 9 10 8 6 5 7 7 12 12 11 11 12 13 15 18 15 15 17 8 18 19 19 19 25 29 33 35 35 35 34 35 37 39 40 40 40 40 39 38 38 37 35 34 32 33 35 36
12 12 16 16 14 10 10 8 11 10 9 14 16 16 15 19 19 20 20 20 20 20 28 19 11 14 18 23 27 31 34 36 35 35 36 39 41 42 42 42 41 41 42 41 40 37 35 34 32
3 2 4 10 12 15 15 13 10 9 12 13 15 17 20 21 20 21 22 22 24 23 29 31 28 22 21 20 19 24 28 31 35 36 36 38 39 40 42 43 43 44 45 44 45 44 42 38 37
3 4 6 10 18 20 19 15 8 11 16 16 17 20 21 20 20 21 22 25 26 29 33 35 38 39 38 34 27 25 23 26 28 31 33 35 37 40 43 44 46 45 46 47 46 47 47 45 42
6 8 10 8 8 17 20 15 9 10 12 19 21 22 20 21 18 19 22 25 25 29 35 36 41 42 45 44 42 33 28 26 26 27 27 30 34 37 41 44 47 48 49 48 49 49 48 48 46
11 10 6 4 10 15 15 13 11 10 14 19 22 23 22 20 18 20 23 24 25 30 35 39 41 42 45 46 37 36 37 37 33 31 28 27 30 34 38 42 46 48 51 52 51 51 51 50 47
5 6 1 5 7 8 11 15 17 16 16 15 26 23 22 19 20 22 22 24 27 31 35 40 39 42 46 41 42 44 45 46 44 41 37 31 29 30 34 39 42 46 50 52 53 55 55 55 50
10 6 4 5 7 8 12 8 14 18 14 14 19 26 23 19 20 21 24 25 29 32 37 39 41 41 48 43 43 46 50 55 54 50 45 41 38 37 35 36 40 43 46 48 52 55 56 59 59
9 9 10 11 9 10 11 6 5 6 9 10 19 24 19 18 21 27 23 25 31 37 38 40 38 45 48 42 43 48 53 58 63 59 56 51 46 42 42 41 39 43 46 47 48 52 55 55 56
9 9 9 11 10 5 3 4 7 7 10 14 20 21 21 22 23 21 23 30 37 37 38 39 43 45 45 44 47 52 59 63 66 60 59 56 54 50 47 46 45 44 45 48 49 48 50 53 54
12 7 2 2 1 6 5 7 6 8 9 14 17 19 20 20 20 24 27 33 34 35 39 42 42 44 47 50 53 57 60 66 66 63 62 62 60 59 56 51 48 47 45 46 49 49 49 49 51
9 10 4 5 2 5 9 4 3 7 8 12 12 13 18 22 24 27 31 38 36 38 40 42 45 48 54 56 56 60 66 66 64 65 67 68 67 66 62 59 54 49 45 45 47 50 49 49 49
7 12 10 6 2 2 4 6 8 11 10 11 12 17 20 24 25 30 34 34 36 39 43 46 52 53 57 57 62 66 65 63 66 68 69 69 68 66 63 61 57 48 45 43 45 47 47 48 47
10 8 6 6 3 4 4 6 11 11 11 12 15 17 22 24 26 32 35 34 36 39 45 51 52 56 57 63 65 64 63 65 66 67 67 65 60 53 50 47 45 41 39 40 41 42 45 45 46
11 15 10 9 7 7 2 6 6 9 11 14 17 19 24 26 30 31 31 33 39 42 47 51 53 57 61 63 61 61 62 62 63 61 53 47 45 41 35 32 30 30 31 34 36 37 39 42 42
12 11 21 16 8 11 9 18 22 19 13 16 17 23 26 27 27 27 30 36 39 44 49 51 54 58 60 59 59 61 59 58 52 45 33 30 30 28 25 20 16 18 23 27 31 33 35 38 40
Wind_Direction
238 229 222 274 79 73 70 63 131 99 90 83 85 81 58 70 90 130 142 121 120 153 161 162 179 176 181 189 190 189 188 188 187 189 191 192 195 202 208 209 204 200 201 197 196 186 174 159 68
227 212 184 121 101 39 28 32 112 111 104 91 90 72 64 83 108 138 148 155 136 143 142 155 174 172 176 194 201 199 199 204 201 201 201 203 202 207 213 218 221 223 228 228 227 232 244 253 271
207 196 120 87 66 11 353 1 92 113 98 89 87 69 71 104 126 119 108 141 128 124 127 132 129 136 158 203 216 219 222 224 228 225 221 217 217 219 222 226 230 232 234 238 240 242 247 256 268
197 155 96 79 36 19 1 76 165 128 122 108 91 84 83 96 114 109 104 106 118 115 99 98 111 117 144 204 232 255 255 258 259 254 253 249 241 235 235 237 239 241 242 245 249 251 254 257 261
184 141 92 71 43 49 50 72 128 129 122 116 102 105 90 105 90 125 110 126 115 118 117 129 136 143 159 164 176 197 229 260 272 276 276 273 272 268 261 254 250 249 250 249 250 253 255 258 262
150 118 91 52 37 83 96 116 129 133 118 114 119 101 109 133 140 150 195 153 130 138 145 148 159 171 174 179 189 201 220 238 252 262 268 270 269 267 265 264 265 262 260 258 257 256 256 255 256
159 100 72 48 54 106 100 126 119 108 117 115 119 116 139 152 157 157 185 160 161 190 187 199 196 201 209 214 224 230 228 243 286 302 303 292 284 279 271 264 263 262 260 259 258 258 260 261 261
162 100 86 66 98 113 119 127 132 141 143 134 143 120 153 152 158 174 166 183 235 195 194 213 218 248 262 262 249 225 233 232 279 299 310 305 295 285 272 271 268 263 260 260 261 261 260 259 259
131 102 96 84 92 119 136 133 149 142 149 170 172 145 148 123 101 227 239 213 242 205 228 245 250 260 259 248 253 253 268 276 278 291 298 301 297 284 270 265 268 270 269 267 264 262 260 260 261
162 117 89 84 113 106 112 331 140 157 177 183 173 161 148 116 73 24 260 263 247 235 239 242 249 257 261 251 255 266 276 280 284 286 288 289 293 277 272 266 264 263 263 266 268 267 263 259 258
154 129 75 110 115 134 175 206 146 183 162 154 218 120 83 56 44 13 10 258 244 235 229 232 240 250 257 266 270 272 275 277 275 277 281 281 277 273 265 261 262 262 261 261 261 268 268 265 262
208 142 285 321 174 219 246 223 199 210 272 169 158 127 58 19 3 316 281 273 269 266 264 262 261 264 269 272 272 271 273 275 278 279 280 280 281 274 270 264 265 262 264 262 264 261 266 267 265
215 243 265 228 248 290 280 255 264 247 264 244 259 294 328 333 347 10 276 275 291 295 296 292 285 280 278 276 276 276 277 278 278 278 276 276 277 275 275 274 269 261 268 263 261 253 260 258 260
146 134 233 201 258 291 238 251 252 267 278 252 265 320 314 317 339 345 17 3 338 321 299 290 289 289 287 284 282 280 278 278 280 281 279 276 274 274 272 271 272 270 269 267 259 250 248 255 258
210 206 204 233 235 266 228 228 258 294 289 270 277 291 299 311 324 336 348 7 360 11 354 312 297 288 290 291 292 290 287 281 276 276 277 277 276 274 271 269 269 272 271 272 269 258 259 257 261
233 250 242 242 233 236 236 250 277 294 302 282 276 284 294 307 314 326 336 341 339 341 346 8 304 304 309 304 297 293 291 290 286 281 277 276 275 273 271 269 267 265 267 269 270 269 262 258 255
169 291 319 267 231 231 231 250 265 266 259 264 281 291 298 303 309 318 322 325 334 326 348 350 352 341 325 317 301 295 288 287 287 287 282 276 273 271 270 269 267 265 265 264 266 268 268 262 260
209 310 314 305 211 222 238 243 263 261 257 264 279 286 290 292 298 306 312 315 328 333 343 344 343 340 335 332 319 319 302 291 284 284 286 284 279 272 269 268 267 265 263 263 263 264 265 266 265
296 293 295 305 251 227 227 236 272 283 256 260 275 275 278 279 286 294 301 308 321 334 336 337 337 335 336 335 330 327 321 308 296 291 287 284 283 279 273 269 267 265 264 263 263 262 262 263 265
278 269 265 245 206 208 222 229 258 257 256 269 274 266 267 270 278 293 300 314 327 329 329 331 332 336 340 333 333 333 331 326 314 304 296 287 284 283 280 274 270 267 264 263 262 262 263 262 262
225 248 155 205 198 218 244 252 256 260 279 275 246 253 256 260 277 291 308 315 318 319 321 323 328 335 335 334 335 331 327 323 319 312 306 298 287 281 281 281 278 270 265 263 261 259 260 263 261
241 244 279 291 275 281 248 276 260 278 284 279 241 238 245 259 277 292 303 311 314 312 316 324 328 329 332 331 328 324 323 324 321 315 310 305 300 292 286 279 276 275 272 264 260 258 258 258 260
249 257 261 290 296 293 271 275 281 297 292 256 229 224 229 253 280 292 301 307 307 309 317 321 320 324 330 322 316 317 318 319 318 314 310 305 300 294 289 284 279 273 271 270 265 257 255 255 257
245 281 269 275 283 292 253 268 266 261 285 246 216 218 245 270 281 293 301 305 309 308 314 315 319 322 322 314 313 314 314 312 312 308 305 302 299 296 291 284 279 275 269 267 266 264 256 253 254
246 227 300 335 358 223 285 302 264 231 231 231 231 246 268 275 288 296 299 304 307 306 307 314 318 316 315 311 311 311 311 310 309 307 304 302 300 297 295 287 281 276 272 267 263 263 261 254 251
218 225 200 196 211 275 313 256 245 225 224 234 262 279 289 284 292 287 301 310 305 304 310 312 313 311 313 311 310 310 309 309 307 305 303 302 299 296 294 289 285 278 274 269 262 258 258 255 250
200 220 228 214 210 296 263 259 258 226 237 260 278 281 280 271 277 293 304 306 307 306 308 311 312 310 311 309 309 310 311 309 307 305 303 301 298 296 292 285 280 277 274 271 262 255 253 254 249
257 242 181 185 150 242 261 256 241 237 261 259 277 293 273 280 288 300 309 301 305 306 311 312 310 309 309 309 311 312 310 309 308 306 304 302 301 298 294 287 278 270 267 267 263 254 248 248 247
213 206 214 216 208 173 210 247 281 270 281 284 297 272 271 280 292 301 302 301 307 309 311 309 309 310 312 313 313 312 312 312 311 310 311 309 307 303 298 288 274 265 261 262 261 258 250 243 244
236 269 233 223 222 224 244 263 279 280 277 284 275 256 267 272 288 296 300 307 307 309 309 312 315 318 318 317 316 316 316 316 317 318 322 329 325 320 311 294 279 272 270 264 259 256 252 242 237
Height
3159 3160 3161 3164 3168 3165 3164 3168 3168 3167 3166 3166 3168 3170 3170 3167 3167 3173 3170 3168 3170 3174 3175 3175 3178 3179 3180 3181 3182 3182 3182 3182 3182 3183 3183 3183 3183 3182 3183 3183 3182 3182 3182 3182 3181 3181 3180 3180 3179
3159 3160 3161 3163 3166 3165 3165 3167 3168 3169 3168 3167 3168 3169 3169 3167 3166 3167 3171 3171 3171 3174 3176 3178 3180 3181 3182 3183 3184 3184 3183 3183 3183 3183 3183 3183 3182 3182 3182 3182 3182 3181 3181 3181 3181 3181 3180 3179 3178
3159 3160 3163 3163 3165 3165 3164 3167 3169 3170 3169 3170 3170 3171 3170 3170 3172 3174 3178 3179 3178 3176 3178 3181 3182 3182 3183 3184 3184 3185 3185 3185 3184 3184 3183 3182 3182 3182 3182 3181 3181 3180 3180 3181 3180 3180 3179 3178 3177
3159 3161 3164 3165 3165 3165 3163 3166 3167 3168 3169 3170 3171 3172 3174 3174 3177 3178 3178 3178 3178 3177 3180 3183 3183 3182 3183 3184 3185 3185 3185 3185 3185 3185 3184 3184 3183 3182 3181 3181 3180 3180 3179 3179 3179 3179 3178 3177 3176
3159 3161 3163 3165 3165 3165 3164 3163 3166 3167 3170 3168 3171 3173 3175 3178 3181 3179 3179 3178 3179 3179 3178 3178 3181 3180 3181 3182 3183 3183 3184 3184 3184 3183 3183 3183 3183 3183 3182 3181 3180 3179 3178 3178 3177 3177 3176 3175 3175
3160 3162 3164 3165 3165 3166 3167 3166 3166 3168 3169 3169 3172 3172 3175 3177 3177 3176 3180 3180 3179 3181 3180 3179 3178 3179 3180 3181 3181 3182 3181 3182 3182 3181 3181 3180 3180 3180 3179 3179 3179 3178 3177 3176 3175 3174 3174 3173 3172
3159 3162 3165 3165 3165 3168 3169 3169 3168 3167 3169 3170 3171 3170 3173 3174 3175 3177 3178 3179 3177 3175 3174 3176 3177 3179 3179 3180 3180 3180 3179 3179 3180 3179 3179 3179 3178 3177 3176 3175 3175 3174 3173 3173 3172 3171 3171 3171 3170
3162 3164 3165 3165 3166 3168 3169 3169 3168 3167 3165 3170 3171 3172 3170 3172 3174 3175 3177 3179 3178 3176 3176 3178 3179 3179 3179 3180 3178 3177 3178 3177 3177 3177 3176 3175 3175 3173 3173 3172 3171 3170 3169 3168 3168 3168 3167 3166 3166
3163 3165 3165 3166 3168 3169 3170 3168 3169 3168 3166 3168 3169 3171 3171 3171 3174 3175 3176 3176 3176 3176 3176 3177 3176 3178 3179 3176 3175 3174 3174 3173 3173 3172 3172 3171 3169 3168 3167 3167 3166 3165 3164 3164 3163 3162 3162 3161 3162
3163 3165 3166 3168 3169 3169 3169 3169 3169 3170 3169 3169 3169 3171 3173 3173 3174 3175 3176 3175 3175 3176 3176 3176 3176 3176 3176 3175 3173 3171 3171 3170 3169 3168 3167 3166 3164 3162 3161 3160 3159 3158 3157 3157 3157 3158 3157 3155 3156
3163 3165 3167 3168 3169 3170 3170 3170 3170 3170 3170 3171 3170 3170 3173 3176 3177 3177 3177 3176 3176 3177 3177 3176 3174 3173 3173 3172 3170 3168 3167 3165 3164 3162 3160 3159 3158 3157 3155 3153 3152 3151 3150 3150 3150 3151 3151 3151 3150
3163 3164 3165 3168 3170 3171 3171 3170 3171 3172 3172 3173 3175 3177 3178 3180 3179 3178 3177 3175 3174 3173 3173 3173 3172 3170 3168 3166 3164 3163 3161 3160 3158 3157 3154 3153 3151 3151 3149 3148 3146 3145 3144 3143 3143 3144 3144 3144 3144
3161 3163 3164 3166 3168 3169 3169 3168 3169 3172 3174 3173 3175 3176 3178 3179 3178 3177 3175 3172 3170 3168 3168 3167 3166 3165 3163 3161 3159 3157 3155 3152 3151 3149 3148 3147 3146 3145 3143 3142 3140 3138 3137 3136 3135 3135 3136 3137 3137
3161 3163 3164 3165 3166 3167 3166 3166 3168 3170 3171 3174 3175 3175 3176 3176 3175 3174 3173 3172 3171 3169 3166 3163 3160 3158 3156 3154 3152 3150 3148 3146 3143 3141 3140 3138 3138 3137 3136 3135 3134 3133 3131 3129 3127 3127 3128 3128 3129
3160 3162 3163 3164 3165 3165 3166 3165 3165 3165 3167 3169 3172 3174 3174 3173 3172 3172 3171 3170 3168 3167 3164 3160 3157 3154 3152 3147 3144 3141 3139 3138 3137 3135 3131 3130 3129 3128 3128 3127 3126 3125 3124 3123 3122 3122 3121 3120 3121
3159 3160 3160 3162 3163 3164 3165 3165 3165 3164 3165 3166 3168 3170 3170 3170 3169 3167 3167 3167 3166 3163 3162 3160 3156 3153 3149 3145 3142 3137 3133 3130 3128 3126 3125 3123 3121 3119 3118 3116 3116 3116 3116 3116 3115 3115 3115 3114 3114
3157 3158 3158 3159 3160 3162 3163 3163 3164 3162 3162 3163 3165 3165 3166 3165 3164 3163 3162 3161 3160 3158 3155 3154 3152 3149 3146 3143 3140 3135 3131 3126 3121 3118 3116 3113 3112 3110 3108 3107 3107 3107 3106 3107 3106 3106 3105 3106 3106
3157 3157 3157 3155 3157 3158 3160 3161 3162 3161 3160 3161 3162 3162 3162 3161 3161 3160 3159 3158 3155 3152 3149 3147 3144 3141 3138 3134 3131 3128 3125 3120 3116 3112 3108 3104 3102 3100 3098 3098 3097 3097 3096 3096 3096 3095 3096 3096 3097
3156 3156 3156 3155 3154 3156 3157 3159 3160 3160 3159 3158 3158 3159 3159 3157 3157 3157 3156 3154 3152 3150 3146 3143 3140 3137 3132 3127 3123 3119 3116 3113 3110 3107 3104 3100 3096 3092 3089 3088 3087 3086 3085 3085 3085 3084 3085 3086 3088
3154 3155 3155 3154 3154 3156 3156 3158 3157 3157 3157 3156 3155 3155 3155 3154 3154 3154 3152 3150 3149 3146 3144 3140 3137 3133 3127 3123 3117 3113 3108 3104 3100 3097 3096 3093 3089 3085 3080 3078 3075 3075 3074 3074 3075 3074 3073 3075 3078
3154 3154 3154 3154 3154 3154 3154 3155 3155 3155 3154 3153 3153 3154 3153 3152 3152 3150 3149 3148 3146 3143 3140 3137 3133 3128 3123 3117 3112 3106 3101 3096 3091 3087 3084 3083 3081 3078 3073 3068 3065 3064 3063 3062 3062 3063 3062 3061 3066
3153 3154 3154 3154 3154 3154 3154 3151 3150 3149 3148 3149 3149 3150 3151 3150 3149 3149 3147 3145 3142 3139 3137 3133 3128 3123 3118 3111 3106 3100 3094 3088 3083 3078 3073 3070 3068 3065 3063 3059 3055 3051 3049 3049 3049 3049 3050 3050 3050
3152 3152 3152 3151 3151 3151 3150 3149 3144 3144 3145 3146 3147 3148 3149 3149 3148 3148 3145 3142 3139 3135 3132 3128 3123 3118 3111 3105 3099 3093 3087 3081 3074 3069 3063 3059 3056 3053 3050 3047 3044 3040 3036 3034 3034 3036 3037 3037 3039
3150 3150 3150 3149 3149 3148 3147 3147 3144 3143 3144 3144 3146 3147 3147 3147 3146 3144 3142 3139 3137 3133 3128 3123 3117 3111 3105 3099 3093 3087 3080 3072 3064 3057 3050 3044 3039 3037 3035 3032 3029 3026 3023 3021 3019 3020 3023 3025 3026
3147 3149 3149 3149 3150 3148 3145 3144 3141 3141 3142 3145 3146 3147 3146 3144 3143 3141 3138 3137 3132 3128 3124 3118 3112 3105 3099 3093 3087 3080 3071 3062 3051 3043 3035 3029 3023 3018 3016 3014 3012 3010 3008 3006 3006 3006 3008 3011 3014
3144 3146 3147 3154 3153 3146 3143 3140 3140 3141 3142 3144 3145 3145 3144 3141 3140 3139 3136 3132 3127 3122 3117 3111 3105 3098 3092 3085 3077 3069 3060 3049 3039 3030 3020 3012 3005 2998 2996 2993 2992 2992 2992 2991 2991 2991 2993 2996 3000
3142 3143 3144 3144 3145 3145 3141 3140 3139 3139 3141 3142 3142 3141 3140 3138 3137 3135 3131 3126 3122 3116 3111 3104 3097 3090 3083 3075 3066 3056 3046 3035 3025 3015 3005 2995 2986 2979 2974 2971 2970 2973 2974 2975 2974 2976 2979 2983 2988
3139 3141 3142 3141 3145 3145 3138 3137 3135 3136 3137 3138 3138 3137 3136 3135 3133 3129 3125 3122 3117 3111 3104 3097 3089 3081 3073 3063 3053 3042 3031 3021 3011 2999 2987 2976 2967 2960 2954 2951 2951 2954 2958 2960 2959 2961 2965 2970 2975
3136 3136 3138 3138 3138 3138 3142 3133 3132 3134 3135 3135 3135 3135 3133 3131 3129 3126 3122 3117 3111 3105 3098 3090 3081 3072 3062 3051 3039 3029 3019 3008 2995 2982 2971 2962 2954 2947 2942 2939 2939 2942 2945 2947 2947 2950 2953 2956 2963
3132 3133 3133 3133 3134 3132 3130 3128 3130 3131 3132 3132 3131 3129 3128 3127 3126 3122 3117 3112 3105 3098 3091 3082 3072 3062 3050 3038 3027 3017 3005 2994 2982 2972 2963 2955 2948 2943 2936 2934 2934 2935 2936 2937 2937 2939 2941 2946 2951